QPF
0.00 0.00 0.00 0.00 0.00 0.00 0.00 0.00 0.00 0.00 0.00 0.00 0.00 0.00 0.00 0.00 0.00 0.00 0.00 0.00 0.00 0.00 0.00 0.00 0.00 0.00 0.00 0.00 0.00 0.00 0.00 0.00 0.00 0.00 0.00 0.00 0.00 0.00
0.00 0.00 0.00 0.00 0.00 0.00 0.00 0.00 0.00 0.00 0.00 0.00 0.00 0.00 0.00 0.00 0.00 0.00 0.00 0.00 0.00 0.00 0.00 0.00 0.00 0.00 0.00 0.00 0.00 0.00 0.00 0.00 0.00 0.01 0.00 0.00 0.00 0.00
0.00 0.00 0.00 0.00 0.00 0.00 0.00 0.00 0.00 0.00 0.00 0.00 0.00 0.00 0.00 0.00 0.00 0.00 0.00 0.00 0.00 0.00 0.00 0.00 0.00 0.00 0.00 0.00 0.00 0.00 0.00 0.00 0.01 0.00 0.00 0.00 0.00 0.00
0.00 0.00 0.00 0.00 0.00 0.00 0.00 0.00 0.00 0.00 0.00 0.00 0.00 0.00 0.00 0.00 0.00 0.00 0.00 0.00 0.00 0.00 0.00 0.00 0.00 0.00 0.00 0.00 0.00 0.00 0.00 0.00 0.00 0.00 0.00 0.00 0.00 0.00
0.00 0.00 0.00 0.00 0.00 0.00 0.00 0.00 0.00 0.00 0.00 0.00 0.00 0.00 0.00 0.00 0.00 0.00 0.00 0.00 0.00 0.00 0.00 0.00 0.00 0.00 0.00 0.00 0.00 0.00 0.01 0.01 0.00 0.00 0.00 0.00 0.00 0.00
0.00 0.00 0.00 0.00 0.00 0.00 0.00 0.00 0.00 0.00 0.00 0.00 0.00 0.00 0.00 0.00 0.00 0.00 0.00 0.00 0.00 0.00 0.00 0.00 0.00 0.00 0.00 0.00 0.00 0.00 0.01 0.02 0.01 0.01 0.00 0.00 0.00 0.00
0.00 0.00 0.00 0.00 0.00 0.00 0.00 0.00 0.00 0.00 0.00 0.00 0.00 0.00 0.00 0.00 0.00 0.00 0.00 0.00 0.00 0.00 0.00 0.00 0.00 0.00 0.00 0.00 0.00 0.00 0.01 0.00 0.00 0.01 0.00 0.00 0.00 0.00
0.00 0.00 0.00 0.00 0.00 0.00 0.00 0.00 0.00 0.00 0.00 0.00 0.00 0.00 0.00 0.00 0.00 0.00 0.00 0.00 0.00 0.00 0.00 0.00 0.00 0.00 0.00 0.00 0.00 0.00 0.00 0.01 0.00 0.00 0.00 0.00 0.00 0.00
0.00 0.00 0.00 0.00 0.00 0.00 0.00 0.00 0.00 0.00 0.00 0.00 0.00 0.00 0.00 0.00 0.00 0.00 0.00 0.00 0.00 0.00 0.00 0.00 0.00 0.00 0.00 0.00 0.00 0.00 0.00 0.00 0.00 0.00 0.00 0.00 0.00 0.00
0.00 0.00 0.00 0.00 0.00 0.00 0.00 0.00 0.00 0.00 0.00 0.00 0.00 0.00 0.00 0.00 0.00 0.00 0.00 0.00 0.00 0.00 0.00 0.00 0.00 0.00 0.00 0.00 0.00 0.00 0.00 0.00 0.00 0.00 0.00 0.00 0.00 0.00
0.00 0.00 0.00 0.00 0.00 0.00 0.00 0.00 0.00 0.00 0.00 0.00 0.00 0.00 0.00 0.00 0.00 0.00 0.00 0.00 0.00 0.00 0.00 0.00 0.00 0.00 0.00 0.00 0.00 0.00 0.00 0.00 0.00 0.00 0.00 0.00 0.00 0.00
0.00 0.00 0.00 0.00 0.00 0.00 0.00 0.00 0.00 0.00 0.00 0.00 0.00 0.00 0.00 0.00 0.00 0.00 0.00 0.00 0.00 0.00 0.00 0.00 0.00 0.00 0.00 0.00 0.00 0.00 0.00 0.00 0.00 0.00 0.00 0.00 0.00 0.00
0.00 0.00 0.00 0.00 0.00 0.00 0.00 0.00 0.00 0.00 0.00 0.00 0.00 0.00 0.00 0.00 0.00 0.00 0.00 0.00 0.00 0.00 0.00 0.00 0.00 0.00 0.00 0.00 0.00 0.00 0.00 0.00 0.00 0.00 0.00 0.00 0.00 0.00
0.00 0.00 0.00 0.00 0.00 0.00 0.00 0.00 0.00 0.00 0.00 0.00 0.00 0.00 0.00 0.00 0.00 0.00 0.00 0.00 0.00 0.00 0.00 0.00 0.00 0.00 0.00 0.00 0.00 0.00 0.00 0.00 0.00 0.00 0.00 0.00 0.00 0.00
0.00 0.00 0.00 0.00 0.00 0.00 0.00 0.00 0.00 0.00 0.00 0.00 0.00 0.00 0.00 0.00 0.00 0.00 0.00 0.00 0.00 0.00 0.00 0.00 0.00 0.00 0.00 0.00 0.00 0.00 0.00 0.00 0.00 0.00 0.00 0.00 0.00 0.00
0.00 0.00 0.00 0.00 0.00 0.00 0.00 0.00 0.00 0.00 0.00 0.00 0.00 0.00 0.00 0.00 0.00 0.00 0.00 0.00 0.00 0.00 0.00 0.00 0.00 0.00 0.00 0.00 0.00 0.00 0.00 0.00 0.00 0.00 0.00 0.00 0.00 0.00
0.00 0.00 0.00 0.00 0.00 0.00 0.00 0.00 0.00 0.00 0.00 0.00 0.00 0.00 0.00 0.00 0.00 0.00 0.00 0.00 0.00 0.00 0.00 0.00 0.00 0.00 0.00 0.00 0.00 0.00 0.00 0.00 0.00 0.00 0.00 0.00 0.00 0.00
0.00 0.00 0.00 0.00 0.00 0.00 0.00 0.00 0.00 0.00 0.00 0.00 0.00 0.00 0.00 0.00 0.00 0.00 0.00 0.00 0.00 0.00 0.00 0.00 0.00 0.00 0.00 0.00 0.00 0.00 0.00 0.00 0.00 0.00 0.00 0.00 0.00 0.00
0.00 0.00 0.00 0.00 0.00 0.00 0.00 0.00 0.00 0.00 0.00 0.00 0.00 0.00 0.00 0.00 0.00 0.00 0.00 0.00 0.00 0.00 0.00 0.00 0.00 0.00 0.00 0.00 0.00 0.00 0.00 0.00 0.00 0.00 0.00 0.00 0.00 0.00
0.00 0.00 0.00 0.00 0.00 0.00 0.00 0.00 0.00 0.00 0.00 0.00 0.00 0.00 0.00 0.00 0.00 0.00 0.00 0.00 0.00 0.00 0.00 0.00 0.00 0.00 0.00 0.00 0.00 0.00 0.00 0.00 0.00 0.00 0.00 0.00 0.00 0.00
0.00 0.00 0.00 0.00 0.00 0.00 0.00 0.00 0.00 0.00 0.00 0.00 0.00 0.00 0.00 0.00 0.00 0.00 0.00 0.00 0.00 0.00 0.00 0.00 0.00 0.00 0.00 0.00 0.00 0.00 0.00 0.00 0.00 0.00 0.00 0.00 0.00 0.00
0.00 0.00 0.00 0.00 0.00 0.00 0.00 0.00 0.00 0.00 0.00 0.00 0.00 0.00 0.00 0.00 0.00 0.00 0.00 0.00 0.00 0.00 0.00 0.00 0.00 0.00 0.00 0.00 0.00 0.00 0.00 0.00 0.00 0.00 0.00 0.00 0.00 0.00
0.00 0.00 0.00 0.00 0.00 0.00 0.00 0.00 0.00 0.00 0.00 0.00 0.00 0.00 0.00 0.00 0.00 0.00 0.00 0.00 0.00 0.00 0.00 0.00 0.00 0.00 0.00 0.00 0.00 0.00 0.00 0.00 0.00 0.00 0.00 0.00 0.00 0.00
MSLP
1026.17 1026.12 1026.03 1025.85 1025.79 1025.77 1025.86 1026.10 1026.41 1026.45 1025.97 1025.37 1025.35 1024.93 1024.91 1024.68 1024.35 1023.79 1023.45 1022.91 1022.37 1021.96 1021.61 1021.27 1020.93 1020.53 1020.12 1019.68 1019.29 1019.01 1018.62 1018.29 1017.84 1017.34 1017.07 1016.80 1016.83 1016.72
1026.09 1026.02 1025.96 1025.89 1025.82 1025.80 1025.94 1026.03 1026.15 1026.41 1026.36 1025.77 1025.36 1025.21 1024.95 1024.61 1024.15 1023.71 1023.26 1022.55 1022.06 1021.52 1021.07 1020.72 1020.34 1019.95 1019.56 1019.19 1018.76 1018.38 1018.06 1017.78 1017.37 1016.75 1016.30 1016.24 1016.20 1016.15
1026.01 1025.89 1025.80 1025.80 1025.92 1026.00 1026.00 1025.97 1026.06 1026.30 1026.32 1025.76 1025.47 1025.08 1024.78 1024.53 1023.92 1023.38 1022.83 1022.23 1021.60 1021.12 1020.63 1020.09 1019.71 1019.34 1018.91 1018.47 1018.17 1017.79 1017.47 1017.10 1016.72 1016.34 1015.99 1015.77 1015.70 1015.64
1025.85 1025.67 1025.56 1025.62 1025.78 1025.75 1026.02 1026.07 1025.98 1025.98 1026.16 1025.60 1025.35 1025.03 1024.66 1024.16 1023.73 1023.26 1022.42 1021.77 1021.38 1020.85 1020.26 1019.67 1019.14 1018.68 1018.24 1017.85 1017.47 1017.15 1016.71 1016.34 1016.13 1015.86 1015.58 1015.27 1015.21 1014.88
1025.54 1025.54 1025.43 1025.37 1025.50 1025.58 1025.71 1025.81 1025.77 1025.59 1025.74 1025.75 1025.26 1024.89 1024.47 1024.03 1023.44 1022.83 1022.19 1021.69 1021.08 1020.42 1019.84 1019.18 1018.56 1018.13 1017.59 1017.12 1016.71 1016.41 1015.98 1015.53 1015.32 1014.97 1014.71 1014.60 1014.47 1014.25
1025.05 1025.12 1025.10 1025.02 1025.10 1025.22 1025.31 1025.49 1025.40 1025.41 1025.50 1025.55 1025.25 1024.75 1024.38 1023.71 1023.28 1022.72 1021.99 1021.47 1020.70 1019.98 1019.25 1018.78 1018.19 1017.69 1017.19 1016.64 1016.11 1015.68 1015.22 1014.81 1014.65 1014.18 1013.66 1013.66 1013.69 1013.49
1024.78 1024.80 1024.74 1024.60 1024.30 1024.37 1024.67 1024.89 1024.75 1025.02 1025.32 1025.25 1024.99 1024.48 1023.98 1023.44 1023.08 1022.48 1021.97 1021.22 1020.27 1019.71 1018.94 1018.33 1017.90 1017.24 1016.59 1016.10 1015.51 1014.94 1014.52 1014.15 1013.89 1013.45 1012.90 1012.88 1012.91 1012.78
1024.67 1024.58 1024.56 1024.27 1024.21 1024.18 1024.36 1024.30 1024.39 1024.77 1025.00 1025.01 1024.74 1024.34 1023.73 1023.36 1022.82 1022.31 1021.68 1021.02 1020.02 1019.15 1018.81 1017.59 1017.47 1016.64 1016.00 1015.43 1014.75 1014.16 1013.72 1013.37 1013.23 1013.02 1012.86 1012.48 1012.26 1012.12
1024.26 1024.21 1024.10 1023.92 1024.16 1024.22 1024.19 1024.25 1024.40 1024.42 1024.44 1024.49 1024.30 1023.98 1023.48 1023.02 1022.49 1021.73 1021.08 1020.54 1019.80 1018.95 1018.62 1017.45 1016.68 1016.07 1015.19 1014.50 1013.79 1013.32 1012.88 1012.57 1012.31 1012.22 1012.01 1011.77 1011.62 1011.59
1024.06 1023.98 1023.90 1023.92 1024.15 1024.00 1024.06 1024.09 1024.17 1024.10 1024.10 1023.98 1023.77 1023.38 1023.08 1022.43 1021.91 1021.15 1020.39 1019.78 1019.22 1018.59 1018.26 1017.27 1016.04 1015.38 1014.50 1013.79 1012.94 1012.53 1012.12 1011.81 1011.50 1011.26 1011.13 1011.02 1010.92 1010.96
1023.57 1023.52 1023.51 1023.39 1023.46 1023.33 1023.63 1023.83 1023.83 1023.64 1023.51 1023.27 1022.92 1022.54 1022.11 1021.63 1021.09 1020.59 1020.18 1019.65 1018.71 1018.02 1017.41 1016.97 1015.61 1014.93 1013.94 1013.12 1012.44 1012.02 1011.61 1011.30 1010.87 1010.44 1010.26 1010.17 1010.23 1010.33
1023.06 1023.13 1022.98 1023.07 1022.97 1023.00 1023.17 1023.43 1023.53 1023.33 1023.25 1022.94 1022.66 1022.27 1021.90 1021.45 1020.83 1020.50 1020.08 1019.55 1018.79 1017.60 1016.71 1016.50 1015.18 1014.75 1013.74 1012.66 1012.23 1011.67 1011.37 1010.90 1010.46 1009.90 1009.49 1009.47 1009.64 1009.93
1022.57 1022.55 1022.57 1022.38 1022.34 1022.38 1022.41 1022.70 1022.94 1022.77 1022.77 1022.63 1022.42 1022.10 1021.73 1021.19 1020.62 1020.12 1019.67 1019.35 1018.67 1017.85 1016.66 1016.38 1014.95 1014.15 1013.76 1013.12 1012.19 1011.48 1011.13 1010.49 1009.92 1009.46 1009.09 1008.99 1009.09 1009.34
1021.83 1021.82 1021.87 1021.83 1021.84 1021.86 1021.93 1022.02 1022.10 1022.18 1022.22 1022.34 1022.26 1021.92 1021.52 1020.90 1020.30 1019.79 1019.17 1018.60 1018.02 1017.45 1016.44 1015.97 1015.04 1013.99 1013.49 1012.91 1012.30 1011.30 1010.69 1010.09 1009.58 1009.29 1009.07 1008.89 1008.74 1008.87
1020.85 1020.89 1021.17 1021.26 1021.32 1021.40 1021.39 1021.43 1021.49 1021.58 1021.85 1022.24 1021.96 1021.64 1021.14 1020.56 1019.98 1019.50 1018.75 1018.12 1017.34 1016.54 1015.78 1015.29 1014.84 1014.06 1013.27 1012.45 1012.07 1011.44 1010.84 1009.92 1009.60 1009.38 1009.05 1008.79 1008.74 1008.73
1020.19 1020.34 1020.48 1020.67 1020.82 1020.93 1020.95 1020.87 1020.86 1020.97 1021.25 1021.40 1021.40 1021.10 1020.79 1020.34 1019.95 1019.48 1018.93 1018.07 1017.24 1016.36 1015.57 1014.99 1014.36 1013.76 1012.88 1012.17 1011.96 1011.39 1010.99 1010.79 1009.62 1009.26 1009.06 1008.87 1008.63 1008.53
1019.39 1019.77 1020.08 1020.31 1020.41 1020.44 1020.49 1020.36 1020.22 1020.34 1020.73 1020.75 1021.00 1021.10 1020.73 1020.32 1019.93 1019.38 1018.90 1018.27 1017.68 1016.76 1015.86 1014.81 1014.03 1013.37 1012.72 1012.02 1011.79 1011.48 1010.88 1010.34 1009.63 1009.39 1009.10 1009.20 1008.95 1008.59
1018.66 1018.99 1019.25 1019.53 1019.72 1019.82 1019.89 1019.79 1019.69 1019.83 1019.95 1020.15 1020.47 1020.60 1020.61 1020.38 1019.97 1019.38 1018.89 1018.46 1017.84 1016.99 1016.20 1015.37 1014.57 1013.63 1012.89 1012.45 1012.05 1011.78 1010.99 1010.28 1009.70 1009.47 1009.37 1009.43 1009.32 1008.98
1017.54 1017.99 1018.36 1018.65 1018.82 1018.95 1019.03 1019.06 1019.09 1019.01 1019.13 1019.49 1019.85 1020.18 1020.32 1020.30 1020.02 1019.58 1019.08 1018.60 1017.90 1017.17 1016.41 1015.64 1015.20 1014.69 1013.90 1013.27 1012.31 1011.94 1011.81 1010.83 1010.40 1010.09 1010.02 1009.89 1009.72 1009.46
1016.58 1016.92 1017.31 1017.60 1017.77 1017.95 1018.05 1018.16 1018.22 1018.42 1018.76 1019.06 1019.48 1019.78 1020.10 1020.25 1020.04 1019.68 1019.26 1018.91 1018.29 1017.39 1016.59 1015.91 1015.39 1015.03 1014.64 1013.90 1013.16 1012.53 1012.12 1011.65 1011.12 1010.84 1010.66 1010.54 1010.36 1010.09
1015.48 1015.72 1015.94 1016.24 1016.61 1016.86 1016.97 1017.15 1017.35 1017.78 1018.08 1018.67 1019.02 1019.37 1019.60 1019.97 1019.89 1019.61 1019.29 1018.86 1018.38 1017.72 1017.09 1016.28 1015.47 1014.78 1013.91 1013.19 1013.12 1012.97 1012.79 1012.30 1011.85 1011.55 1011.25 1011.01 1010.92 1010.76
1014.34 1014.53 1014.75 1014.99 1015.31 1015.67 1015.91 1016.17 1016.56 1016.96 1017.43 1017.94 1018.37 1018.73 1018.83 1019.21 1019.58 1019.44 1019.24 1019.03 1018.54 1018.06 1017.46 1016.57 1015.48 1014.60 1013.91 1013.60 1013.30 1013.32 1013.25 1012.95 1012.48 1012.22 1011.98 1011.76 1011.52 1011.32
1013.33 1013.37 1013.58 1013.85 1014.16 1014.49 1014.79 1015.02 1015.43 1015.81 1016.22 1016.72 1017.27 1017.80 1018.24 1019.03 1018.86 1018.94 1019.17 1018.93 1018.57 1018.19 1017.73 1016.99 1016.17 1015.31 1014.86 1014.43 1014.02 1013.74 1013.44 1013.38 1013.21 1012.96 1012.85 1012.50 1012.12 1011.84
Thickness
5395 5386 5376 5368 5359 5348 5336 5323 5309 5302 5302 5290 5272 5264 5256 5252 5250 5251 5251 5252 5252 5252 5252 5253 5254 5257 5260 5264 5269 5273 5279 5286 5294 5302 5313 5328 5342 5359
5378 5369 5358 5348 5338 5327 5315 5304 5290 5276 5266 5264 5256 5250 5245 5242 5240 5239 5240 5241 5241 5242 5243 5244 5245 5248 5251 5254 5259 5264 5268 5274 5282 5292 5300 5311 5322 5335
5360 5351 5341 5332 5319 5306 5295 5283 5271 5256 5247 5247 5241 5239 5237 5234 5232 5231 5231 5231 5232 5232 5233 5235 5237 5240 5243 5247 5250 5254 5258 5264 5271 5278 5287 5295 5305 5316
5342 5334 5326 5317 5303 5290 5276 5263 5253 5243 5234 5235 5231 5227 5225 5224 5222 5222 5222 5222 5222 5221 5223 5226 5229 5232 5236 5238 5241 5244 5248 5253 5258 5264 5272 5284 5290 5302
5328 5320 5312 5302 5289 5276 5263 5250 5241 5235 5225 5220 5221 5217 5215 5213 5214 5213 5213 5212 5212 5213 5215 5218 5222 5224 5227 5229 5231 5234 5238 5243 5248 5253 5261 5269 5277 5289
5316 5306 5295 5285 5273 5261 5250 5239 5232 5225 5218 5212 5210 5208 5205 5205 5203 5203 5205 5203 5204 5206 5211 5212 5213 5214 5214 5217 5221 5223 5226 5230 5235 5243 5252 5258 5265 5276
5303 5292 5280 5271 5261 5251 5240 5232 5227 5219 5211 5207 5204 5203 5201 5198 5196 5195 5194 5197 5198 5201 5206 5203 5203 5203 5204 5205 5209 5213 5215 5217 5222 5230 5239 5247 5253 5263
5283 5274 5265 5257 5246 5236 5229 5224 5219 5211 5205 5199 5197 5195 5194 5190 5189 5187 5187 5189 5194 5195 5196 5197 5193 5195 5196 5198 5199 5201 5202 5204 5207 5213 5221 5232 5241 5251
5271 5262 5254 5247 5237 5229 5221 5215 5210 5205 5201 5194 5192 5188 5187 5184 5183 5184 5184 5184 5186 5188 5188 5189 5187 5189 5192 5194 5195 5193 5192 5194 5197 5202 5211 5221 5232 5241
5258 5250 5243 5235 5225 5219 5213 5208 5204 5200 5195 5190 5188 5185 5183 5181 5179 5181 5182 5184 5182 5181 5179 5182 5184 5185 5188 5189 5190 5188 5187 5189 5192 5197 5205 5213 5224 5234
5250 5241 5234 5228 5221 5216 5208 5203 5199 5196 5192 5188 5186 5184 5181 5178 5177 5178 5177 5177 5179 5178 5177 5175 5179 5181 5184 5186 5186 5183 5183 5185 5190 5196 5203 5210 5219 5229
5241 5233 5227 5219 5214 5210 5202 5197 5192 5192 5188 5186 5184 5181 5177 5174 5173 5172 5172 5172 5173 5175 5175 5173 5176 5175 5180 5181 5181 5181 5181 5183 5188 5196 5203 5210 5217 5225
5233 5226 5220 5215 5211 5206 5201 5195 5191 5190 5186 5185 5182 5179 5175 5172 5170 5169 5169 5168 5169 5168 5171 5167 5174 5175 5174 5174 5177 5180 5180 5184 5190 5197 5204 5211 5219 5225
5227 5222 5215 5211 5207 5203 5198 5195 5193 5189 5184 5180 5177 5176 5173 5171 5168 5167 5167 5168 5169 5168 5169 5166 5168 5171 5171 5174 5172 5178 5182 5186 5192 5197 5205 5212 5220 5226
5224 5218 5211 5207 5204 5200 5197 5194 5191 5186 5180 5173 5174 5173 5171 5170 5168 5165 5166 5167 5169 5170 5169 5168 5166 5167 5169 5174 5175 5176 5181 5188 5193 5196 5203 5211 5218 5226
5219 5214 5208 5203 5199 5195 5191 5190 5188 5184 5179 5176 5172 5171 5170 5167 5164 5162 5160 5163 5166 5169 5169 5167 5167 5167 5170 5174 5174 5178 5180 5183 5193 5199 5203 5209 5219 5228
5214 5207 5201 5197 5194 5192 5188 5187 5185 5182 5177 5174 5170 5168 5166 5164 5162 5161 5159 5159 5158 5162 5164 5167 5168 5169 5171 5174 5176 5178 5182 5186 5193 5197 5203 5208 5217 5227
5210 5203 5199 5193 5191 5188 5185 5184 5182 5179 5176 5173 5168 5166 5163 5160 5159 5159 5157 5155 5155 5158 5160 5162 5164 5167 5170 5172 5172 5175 5182 5189 5194 5197 5203 5208 5216 5224
5207 5198 5194 5188 5188 5186 5184 5182 5180 5179 5175 5172 5168 5163 5160 5159 5156 5155 5154 5152 5154 5156 5158 5159 5158 5159 5162 5160 5172 5175 5175 5183 5190 5196 5199 5206 5213 5220
5203 5199 5193 5188 5186 5186 5184 5181 5179 5175 5171 5168 5163 5159 5154 5153 5151 5151 5151 5144 5147 5152 5156 5157 5157 5157 5157 5161 5166 5170 5174 5178 5185 5192 5196 5201 5207 5214
5199 5197 5194 5190 5185 5184 5183 5180 5177 5172 5169 5162 5160 5156 5152 5151 5148 5148 5146 5146 5143 5149 5150 5152 5156 5159 5164 5168 5165 5167 5169 5174 5179 5184 5191 5196 5200 5209
5196 5194 5191 5189 5186 5184 5182 5179 5175 5171 5167 5162 5157 5153 5150 5148 5144 5143 5142 5140 5143 5142 5144 5149 5155 5160 5165 5167 5170 5163 5165 5168 5174 5178 5183 5189 5195 5199
5193 5192 5189 5187 5185 5184 5182 5180 5176 5172 5169 5164 5159 5155 5149 5145 5145 5142 5140 5141 5141 5140 5141 5143 5148 5154 5157 5161 5163 5164 5167 5165 5168 5171 5174 5180 5187 5193